EW0802 Weather Reports


Display with metric or nautical units.
time (UTC)temp
F
wind
direction
speed
MPH
gust
MPH
rain 1hr
in
rain 24hr
in
rain mn
in
humidity
%
barometer
mb
20260905014539 92 138 0.0 3.0 0.00 0.00 0.00 48 1010.1
20260905013033 93 162 1.0 5.0 0.00 0.00 0.00 47 1009.8
20260905011533 93 92 1.0 6.0 0.00 0.00 0.00 46 1009.7
20260905010037 93 32 1.0 5.0 0.00 0.00 0.00 46 1009.6
20260905004531 94 200 2.0 6.0 0.00 0.00 0.00 46 1009.3
20260905003031 94 155 2.0 8.0 0.00 0.00 0.00 46 1009.1
20260905001531 95 127 1.0 11.0 0.00 0.00 0.00 45 1009.0
20260905000030 96 139 2.0 6.0 0.00 0.00 0.00 44 1009.0
20260904234534 97 56 1.0 9.0 0.00 0.00 0.00 45 1008.9
20260904233028 98 121 1.0 9.0 0.00 0.00 0.00 42 1008.9
20260904231528 99 111 2.0 8.0 0.00 0.00 0.00 40 1008.9
20260904230027 100 91 1.0 5.0 0.00 0.00 0.00 39 1009.0
20260904224528 100 131 2.0 8.0 0.00 0.00 0.00 39 1008.9
20260904223024 100 115 0.0 7.0 0.00 0.00 0.00 39 1009.1
20260904221520 99 271 0.0 7.0 0.00 0.00 0.00 40 1009.1
20260904220027 99 75 0.0 10.0 0.00 0.00 0.00 40 1009.3
20260904214519 100 291 1.0 9.0 0.00 0.00 0.00 39 1009.3
20260904213017 99 178 1.0 4.0 0.00 0.00 0.00 40 1009.4
20260904211514 99 96 1.0 6.0 0.00 0.00 0.00 41 1009.7
20260904210018 99 111 2.0 7.0 0.00 0.00 0.00 40 1009.9
20260904204510 99 225 1.0 6.0 0.00 0.00 0.00 41 1010.0
20260904203007 99 109 1.0 5.0 0.00 0.00 0.00 42 1010.2
20260904201505 99 85 2.0 8.0 0.00 0.00 0.00 42 1010.3
20260904200100 99 80 0.0 5.0 0.00 0.00 0.00 42 1010.6
20260904194603 98 94 1.0 8.0 0.00 0.00 0.00 43 1010.9
20260904193056 97 141 3.0 8.0 0.00 0.00 0.00 43 1011.1
20260904191551 96 163 2.0 8.0 0.00 0.00 0.00 47 1011.3
20260904190050 96 132 1.0 7.0 0.00 0.00 0.00 46 1011.5
20260904184556 96 144 3.0 8.0 0.00 0.00 0.00 47 1011.7
20260904183048 96 145 0.0 9.0 0.00 0.00 0.00 49 1011.8
20260904181555 97 218 2.0 7.0 0.00 0.00 0.00 49 1012.0
20260904180048 96 74 2.0 7.0 0.00 0.00 0.00 51 1012.2
20260904174602 94 144 1.0 5.0 0.00 0.00 0.00 53 1012.3
20260904173036 93 163 2.0 7.0 0.00 0.00 0.00 54 1012.6
20260904171533 92 68 1.0 8.0 0.00 0.00 0.00 54 1012.8
20260904170032 92 160 1.0 7.0 0.00 0.00 0.00 55 1013.0
20260904164530 92 159 1.0 6.0 0.00 0.00 0.00 56 1013.0
20260904163026 91 142 2.0 9.0 0.00 0.00 0.00 57 1012.9
20260904161522 90 268 0.0 8.0 0.00 0.00 0.00 61 1013.0
20260904160022 90 235 1.0 4.0 0.00 0.00 0.00 63 1013.0
20260904154516 89 149 1.0 3.0 0.00 0.00 0.00 65 1013.0
20260904153012 87 198 0.0 7.0 0.00 0.00 0.00 68 1013.0
20260904151507 86 95 2.0 8.0 0.00 0.00 0.00 72 1012.8
20260904150009 84 215 0.0 9.0 0.00 0.00 0.00 77 1012.9
20260904144559 82 42 0.0 4.0 0.00 0.00 0.00 81 1013.0
20260904143055 81 121 2.0 7.0 0.00 0.00 0.00 82 1013.0
20260904141554 80 200 0.0 8.0 0.00 0.00 0.00 83 1013.0
20260904140052 80 140 1.0 7.0 0.00 0.00 0.00 84 1013.0
20260904134548 79 136 2.0 5.0 0.00 0.00 0.00 84 1012.8
20260904133044 79 135 0.0 4.0 0.00 0.00 0.00 84 1012.8
20260904131543 78 132 0.0 2.0 0.00 0.00 0.00 84 1012.6
20260904130039 78 153 1.0 3.0 0.00 0.00 0.00 84 1012.4
20260904124540 78 205 0.0 3.0 0.00 0.00 0.00 84 1012.2
20260904123046 78 157 1.0 3.0 0.00 0.00 0.00 84 1012.1
20260904121531 78 166 1.0 7.0 0.00 0.00 0.00 84 1012.0
20260904120029 78 180 0.0 4.0 0.00 0.00 0.00 84 1011.9
20260904114528 78 163 0.0 2.0 0.00 0.00 0.00 84 1011.7
20260904113029 78 150 0.0 3.0 0.00 0.00 0.00 83 1011.7
20260904111528 78 165 0.0 3.0 0.00 0.00 0.00 83 1011.7
20260904110036 78 173 0.0 2.0 0.00 0.00 0.00 83 1011.6
20260904104524 78 150 0.0 0.0 0.00 0.00 0.00 83 1011.5
20260904103023 78 150 0.0 2.0 0.00 0.00 0.00 83 1011.3
20260904101524 78 92 0.0 3.0 0.00 0.00 0.00 83 1011.3
20260904100022 78 131 0.0 3.0 0.00 0.00 0.00 83 1011.4
20260904094522 78 107 0.0 2.0 0.00 0.00 0.00 83 1011.3
20260904093021 78 180 0.0 3.0 0.00 0.00 0.00 83 1011.2
20260904091522 78 67 1.0 4.0 0.00 0.00 0.00 82 1011.2
20260904090022 78 157 0.0 2.0 0.00 0.00 0.00 82 1011.2
20260904084619 78 76 0.0 7.0 0.00 0.00 0.00 82 1011.2
20260904083018 78 117 1.0 3.0 0.00 0.00 0.00 82 1011.1
20260904081517 79 105 0.0 5.0 0.00 0.00 0.00 82 1011.1
20260904080018 79 120 0.0 4.0 0.00 0.00 0.00 82 1011.0
20260904074516 79 184 0.0 6.0 0.00 0.00 0.00 81 1011.1
20260904073115 79 147 0.0 4.0 0.00 0.00 0.00 81 1011.1
20260904071515 79 147 0.0 4.0 0.00 0.00 0.00 81 1011.3
20260904070033 79 122 0.0 5.0 0.00 0.00 0.00 80 1011.4
20260904064512 79 169 0.0 6.0 0.00 0.00 0.00 80 1011.5
20260904063014 79 125 3.0 8.0 0.00 0.00 0.00 80 1011.4
20260904061510 79 205 2.0 7.0 0.00 0.00 0.00 80 1011.5
20260904060009 79 119 1.0 5.0 0.00 0.00 0.00 80 1011.5
20260904054513 79 89 1.0 6.0 0.00 0.00 0.00 79 1011.5
20260904053007 80 171 0.0 6.0 0.00 0.00 0.00 78 1011.4
20260904051508 80 105 2.0 8.0 0.00 0.00 0.00 77 1011.3
20260904050005 80 92 2.0 4.0 0.00 0.00 0.00 76 1011.5
20260904044500 80 107 0.0 8.0 0.00 0.00 0.00 75 1011.5
20260904043100 80 112 1.0 5.0 0.00 0.00 0.00 73 1011.4
20260904041600 80 137 0.0 6.0 0.00 0.00 0.00 72 1011.5
20260904040100 81 148 0.0 5.0 0.00 0.00 0.00 71 1011.5
20260904034601 81 124 1.0 5.0 0.00 0.00 0.00 71 1011.5
20260904033100 81 172 1.0 5.0 0.00 0.00 0.00 72 1011.5
20260904031557 82 153 0.0 2.0 0.00 0.00 0.00 72 1011.4
20260904030100 82 134 0.0 6.0 0.00 0.00 0.00 72 1011.2
20260904024600 82 144 0.0 4.0 0.00 0.00 0.00 72 1011.1
20260904023101 83 140 1.0 5.0 0.00 0.00 0.00 72 1010.9
20260904021556 83 188 0.0 10.0 0.00 0.00 0.00 71 1010.7
20260904020057 83 111 0.0 6.0 0.00 0.00 0.00 69 1010.4